Showing default

FLOCK 4BE 2, 60511

Orbit data source: Space-Track

FLOCK 4BE 2, 60511 is a payload satellite owned by Planet (US) in SSO that was launched on Fri, 16 Aug 2024 UTC via an FALCON 9 launch vehicle from the Air Force Western Test Range (AFWTR). Payload-class satellites include a variety of spacecraft equipped with specific instruments for various scientific and technological missions. These include communications satellites like Starlink; space stations such as the ISS; scientific satellites like the Hubble; Earth observation satellites from companies like Planet Labs, Umbra, and HawkEye 360; GPS; miniature CubeSats for education and research; and military/defense satellites.

Not visible in the next 10 days
Identifier
60511, 2024-149AV
Orbit
SSO
Country
Flag of USUS
Related business
Manufacturer
Planet
Mission
Partially operational Commercial Imaging
Bus & Motor
CUBESAT 3U, Unknown motor
Mass
5.7 kg wet, 5.7 kg dry
Launch date (UTC)
2024-08-16 (2 years ago)
Launch vehicle
FALCON 9
Launch site
Air Force Western Test Range (AFWTR)
Object type
Payload
Rocket body
Debris
Shape & HBR
Box + 2 Pan, 1.0 m
Radar Cross Section
0.072 m², Medium (>0.1 m² and < 1m²)

Expand to show TLE details & history
Last TLE update: 1 day ago

TLE from 1 day ago
0 FLOCK 4BE 2
1 60511U 24149AV  26173.66507235  .00049734  00000-0  78852-3 0  9996
2 60511  97.3829 261.1180 0003850 233.0842 127.0059 15.53235573103355
Epoch: 2026-06-22T15:57Z
TLE epoch observation values (Epoch: 2026-06-22T15:57:42.251Z)
Latitude
0.00003°
Longitude
110.84422°
Altitude
411.996 km
Speed
7.663 km/s
True Right ascension
17h 24m 28s
True Declination
0° 00' 00"
Sunlit
Object was in full shadow at epoch
Visualization orbit readout
Latitude
Unknown
Longitude
Unknown
Altitude
Unknown
Speed
Unknown
Apparent Right ascension
Unknown
Apparent Declination
Unknown
Sunlit
N/A
Visualization observer readout
Local Sidereal Time
09:33:27
Azimuth
Unknown
Elevation
Unknown
Doppler factor
Unknown
Orbital elements
Apogee altitude
406.818 km
Perigee altitude
401.596 km
Semi-major axis
6,782.344 km
Eccentricity
0.00039
Inclination
97.3829°
RAAN
261.118°
Arg. of periapsis
233.0842°
True anomaly
127.04112°
Mean anomaly
127.0059°
Eccentric anomaly
127.02351°
Mean motion
3.88574 °/min
Orbital period
92.65 mins
BSTAR
0.00078852
Loading maneuver chart data...
Computing Atmospheric mass density...
Loading historical data...
Loading historical data...
Loading historical data...
Loading historical data...
Loading historical data...
Loading historical data...
Loading historical data...

Documentation

Showing up to 5 results
|